Content
SEND FEEDBACK

Daily
Averages
Monthly
Summary
United States of America

CRESCENT, OKLAHOMA


Home > North America > United States > Oklahoma
Elevation: 1140 feet     Latitude: 35 57N     Longitude: 097 36W

WEATHER
 
SELECT A DAY
Number of Records: 67,888;   Date Range: 4/9/98 - 10/21/14
 
SHARE

PRINT THIS DATA

[ ← Previous Day ]
WEATHER ALMANAC - JANUARY 31, 2013
[ Next Day → ]
[ °C ]   °F
Weather ElementAverageHighLow
Temperature36.8 °F55 °F (12:53 pm)24.1 °F (11:53 pm)
Dewpoint20.3 °F28 °F (2:53 pm)10 °F (11:53 pm)
Humidity53.6 %72 % (2:53 am)23 % (12:53 pm)
Barometer30.21 in30.46 in (8:53 pm)30.04 in (4:53 am)
Wind Speed7 mph15 mph (2:53 pm)
Wind Gust25.3 mph (2:53 pm)
Weather ElementAverage
Visibility10 mi
Wind DirectionESE (127.4 °)

Weather ElementTotal
Precipitation---
Heating Degree Days25.5 (Base 65)
Averaged from 23 records on January 31, 2013
WEATHER CONDITIONS BREAKOUT
WIND DIRECTION BREAKOUT
WEATHER BY HOUR - JANUARY 31, 2013
[ °C ]   °F
Local TimeTemperatureDewpointHumidityBarometerVisibilityWind DirectionWind SpeedGust SpeedPrecipitationEventsConditions
1:53 AM32.0 °F21.0 °F64 %30.06 in10.0 miSW (220°)5.8 mphClear
2:53 AM28.9 °F21.0 °F72 %30.06 in10.0 miSouth (180°)4.6 mphClear
3:53 AM28.9 °F21.0 °F72 %30.05 in10.0 miSouth (190°)5.8 mphClear
4:53 AM30.0 °F21.0 °F69 %30.04 in10.0 miSouth (190°)5.8 mphClear
5:53 AM30.9 °F19.9 °F64 %30.04 in10.0 miSSW (210°)5.8 mphClear
6:53 AM32.0 °F19.9 °F61 %30.06 in10.0 miSouth (190°)4.6 mphClear
7:53 AM33.1 °F19.0 °F56 %30.10 in10.0 miSSW (200°)3.5 mphClear
8:53 AM39.0 °F21.0 °F49 %30.10 in10.0 miSW (230°)4.6 mphClear
9:53 AM43.0 °F21.0 °F42 %30.10 in10.0 miWSW (250°)3.5 mphClear
10:53 AM48.9 °F21.0 °F33 %30.14 in10.0 miNorth (350°)8.1 mphClear
11:53 AM51.1 °F19.9 °F29 %30.13 in10.0 miNNE (20°)5.8 mphClear
12:53 PM55.0 °F18.0 °F23 %30.13 in10.0 miNW (320°)6.9 mphClear
1:53 PM53.1 °F25.0 °F34 %30.15 in10.0 miNNE (30°)11.5 mph21.9 mphClear
2:53 PM50.0 °F28.0 °F43 %30.17 in10.0 miNE (40°)15.0 mph25.3 mphClear
3:53 PM46.9 °F27.0 °F46 %30.23 in10.0 miNE (40°)13.8 mph25.3 mphClear
4:53 PM43.0 °F26.1 °F51 %30.28 in10.0 miNNE (30°)11.5 mph19.6 mphClear
5:53 PM36.0 °F25.0 °F64 %30.34 in10.0 miNE (40°)9.2 mph18.4 mphClear
6:53 PM30.9 °F18.0 °F59 %30.41 in10.0 miNE (50°)10.4 mph20.7 mphClear
7:53 PM28.9 °F18.0 °F64 %30.45 in10.0 miVariable3.5 mphClear
8:53 PM28.0 °F16.0 °F61 %30.46 in10.0 miNNE (30°)4.6 mphClear
9:53 PM27.0 °F15.1 °F61 %30.46 in10.0 miNNE (30°)4.6 mphClear
10:53 PM26.1 °F14.0 °F60 %30.45 in10.0 miNNE (30°)5.8 mphClear
11:53 PM24.1 °F10.0 °F55 %30.45 in10.0 miENE (60°)6.9 mphClear
Hourly data recorded from KGOK, located miles away from Crescent, Oklahoma







STORIES FROM OUR PARTNERS